BAW515 LSGG-EDDH

Flight info

Callsign BAW515
Flight time 1h 7m
Altitude 38000
Route SOSAL1N/04 SOSAL N871 KORED DCT BERSU DCT DITON/N0472F390 DCT LOKTA DCT TEDGO DCT HAREM DCT LOHRE DCT MASEK DCT ELNAT/N0471F380 P605 NOLGO NOLGO3P
Aircraft B772/H-SDE2E3FGHIJ5LORVWXY/LB1D1

Departure

Time 2026-04-23 17:06
Airport Geneva International Airport (LSGG)

Arrival

Time 2026-04-23 18:14
Airport Hamburg Helmut Schmidt Airport (EDDH)
Time Latitude Longitude Altitude Speed Heading
2026-04-23 16:15 46.23339 6.10967 1396 ft 0 kts 135°
2026-04-23 16:53 46.23342 6.10962 1396 ft 2 kts 135°
2026-04-23 16:53 46.23354 6.10947 1396 ft 2 kts 135°
2026-04-23 16:53 46.23365 6.10932 1396 ft 2 kts 150°
2026-04-23 16:54 46.23378 6.10924 1396 ft 2 kts 169°
2026-04-23 16:54 46.23393 6.10923 1396 ft 2 kts 187°
2026-04-23 16:54 46.23407 6.10928 1396 ft 2 kts 205°
2026-04-23 16:54 46.23420 6.10939 1396 ft 1 kts 222°
2026-04-23 16:55 46.23424 6.10945 1396 ft 0 kts 226°
2026-04-23 16:58 46.23421 6.10940 1395 ft 3 kts 226°
2026-04-23 16:59 46.23392 6.10897 1396 ft 7 kts 224°
2026-04-23 16:59 46.23357 6.10836 1397 ft 7 kts 244°
2026-04-23 16:59 46.23371 6.10772 1397 ft 8 kts 307°
2026-04-23 16:59 46.23409 6.10691 1398 ft 9 kts 271°
2026-04-23 17:00 46.23399 6.10651 1398 ft 2 kts 237°
2026-04-23 17:00 46.23361 6.10585 1400 ft 15 kts 226°
2026-04-23 17:00 46.23289 6.10480 1401 ft 11 kts 224°
2026-04-23 17:00 46.23230 6.10399 1403 ft 11 kts 224°
2026-04-23 17:01 46.23173 6.10306 1405 ft 14 kts 230°
2026-04-23 17:01 46.23083 6.10170 1407 ft 22 kts 226°
2026-04-23 17:01 46.22956 6.09983 1411 ft 21 kts 225°
2026-04-23 17:01 46.22850 6.09831 1413 ft 9 kts 224°
2026-04-23 17:02 46.22806 6.09769 1414 ft 16 kts 224°
2026-04-23 17:02 46.22689 6.09606 1416 ft 20 kts 224°
2026-04-23 17:02 46.22605 6.09482 1417 ft 14 kts 228°
2026-04-23 17:02 46.22552 6.09365 1418 ft 16 kts 250°
2026-04-23 17:03 46.22541 6.09292 1419 ft 2 kts 260°
2026-04-23 17:03 46.22539 6.09264 1419 ft 0 kts 266°
2026-04-23 17:03 46.22539 6.09262 1419 ft 2 kts 266°
2026-04-23 17:04 46.22549 6.09203 1420 ft 8 kts 298°
2026-04-23 17:04 46.22580 6.09140 1421 ft 4 kts 337°
2026-04-23 17:04 46.22618 6.09151 1420 ft 1 kts 40°
2026-04-23 17:04 46.22621 6.09154 1420 ft 0 kts 42°
2026-04-23 17:05 46.22621 6.09155 1420 ft 0 kts 42°
2026-04-23 17:06 46.22742 6.09329 1419 ft 60 kts 45°
2026-04-23 17:06 46.23219 6.10026 1408 ft 131 kts 46°
2026-04-23 17:06 46.23966 6.11141 1547 ft 169 kts 46°
2026-04-23 17:06 46.24732 6.12333 2280 ft 166 kts 45°
2026-04-23 17:07 46.25512 6.13448 3193 ft 158 kts 45°
2026-04-23 17:07 46.26281 6.14572 3928 ft 159 kts 45°
2026-04-23 17:07 46.27044 6.15684 4416 ft 158 kts 45°
2026-04-23 17:07 46.27823 6.16828 4716 ft 161 kts 45°
2026-04-23 17:08 46.28621 6.18000 5051 ft 163 kts 45°
2026-04-23 17:08 46.29410 6.19158 5379 ft 164 kts 44°
2026-04-23 17:08 46.30225 6.20354 5590 ft 175 kts 44°
2026-04-23 17:08 46.31124 6.21674 5737 ft 192 kts 44°
2026-04-23 17:09 46.32093 6.23099 5948 ft 210 kts 44°
2026-04-23 17:09 46.33158 6.24665 6213 ft 227 kts 44°
2026-04-23 17:09 46.34302 6.26349 6495 ft 244 kts 44°
2026-04-23 17:09 46.35532 6.28161 6834 ft 259 kts 45°
2026-04-23 17:10 46.36673 6.30198 7322 ft 267 kts 62°
2026-04-23 17:10 46.37337 6.32699 7958 ft 268 kts 71°
2026-04-23 17:10 46.37875 6.35312 8517 ft 273 kts 73°
2026-04-23 17:10 46.38402 6.37950 9090 ft 275 kts 73°
2026-04-23 17:11 46.38932 6.40599 9652 ft 276 kts 73°
2026-04-23 17:11 46.39470 6.43279 10194 ft 279 kts 73°
2026-04-23 17:11 46.40021 6.46029 10614 ft 288 kts 73°
2026-04-23 17:11 46.40589 6.48863 10810 ft 305 kts 73°
2026-04-23 17:12 46.41204 6.51940 11043 ft 321 kts 73°
2026-04-23 17:12 46.41848 6.55163 11266 ft 338 kts 73°
2026-04-23 17:12 46.42119 6.56522 11397 ft 345 kts 73°
2026-04-23 17:12 46.42791 6.59897 11739 ft 359 kts 73°
2026-04-23 17:13 46.43486 6.63394 12217 ft 369 kts 73°
2026-04-23 17:13 46.44356 6.66906 12969 ft 371 kts 65°
2026-04-23 17:13 46.45644 6.70120 13809 ft 373 kts 54°
2026-04-23 17:13 46.47239 6.73083 14642 ft 377 kts 51°
2026-04-23 17:14 46.48900 6.76055 15524 ft 382 kts 51°
2026-04-23 17:14 46.50662 6.79208 16535 ft 385 kts 51°
2026-04-23 17:14 46.52340 6.82218 17412 ft 389 kts 51°
2026-04-23 17:14 46.54048 6.85287 18282 ft 393 kts 52°
2026-04-23 17:15 46.55780 6.88403 19091 ft 399 kts 52°
2026-04-23 17:15 46.57523 6.91535 19887 ft 405 kts 52°
2026-04-23 17:15 46.59304 6.94734 20704 ft 410 kts 52°
2026-04-23 17:15 46.61094 6.97952 21574 ft 413 kts 52°
2026-04-23 17:16 46.62951 7.01293 22393 ft 418 kts 52°
2026-04-23 17:16 46.64842 7.04704 23178 ft 423 kts 52°
2026-04-23 17:16 46.66721 7.08094 23926 ft 428 kts 52°
2026-04-23 17:16 46.68599 7.11489 24691 ft 432 kts 52°
2026-04-23 17:17 46.70474 7.14881 25412 ft 436 kts 53°
2026-04-23 17:17 46.72396 7.18364 26159 ft 440 kts 53°
2026-04-23 17:17 46.73673 7.20681 26646 ft 442 kts 53°
2026-04-23 17:17 46.76246 7.25352 27650 ft 444 kts 53°
2026-04-23 17:18 46.80117 7.32400 28916 ft 451 kts 53°
2026-04-23 17:18 46.82078 7.35978 29459 ft 456 kts 53°
2026-04-23 17:18 46.84058 7.39596 30079 ft 459 kts 54°
2026-04-23 17:19 46.86047 7.43232 30878 ft 456 kts 54°
2026-04-23 17:19 46.88035 7.46879 31748 ft 452 kts 53°
2026-04-23 17:19 46.89983 7.50457 32499 ft 450 kts 54°
2026-04-23 17:19 46.91933 7.54045 33145 ft 450 kts 54°
2026-04-23 17:20 46.93878 7.57627 33757 ft 451 kts 53°
2026-04-23 17:20 46.97770 7.64810 35009 ft 448 kts 53°
2026-04-23 17:21 47.01611 7.71918 36151 ft 445 kts 54°
2026-04-23 17:21 47.03524 7.75463 36698 ft 445 kts 54°
2026-04-23 17:21 47.07365 7.82599 37835 ft 445 kts 53°
2026-04-23 17:22 47.09263 7.86131 38273 ft 445 kts 53°
2026-04-23 17:22 47.13090 7.93280 38256 ft 441 kts 55°
2026-04-23 17:23 47.18061 8.04662 38259 ft 439 kts 59°
2026-04-23 17:24 47.22925 8.16098 38263 ft 440 kts 59°
2026-04-23 17:24 47.27783 8.27559 38261 ft 440 kts 59°
2026-04-23 17:25 47.31683 8.34410 38263 ft 442 kts 43°
2026-04-23 17:25 47.34160 8.37162 38273 ft 444 kts 36°
2026-04-23 17:26 47.44551 8.47196 38903 ft 451 kts 35°
2026-04-23 17:27 47.49788 8.52270 39278 ft 452 kts 35°
2026-04-23 17:27 47.52435 8.54841 39274 ft 449 kts 35°
2026-04-23 17:27 47.62150 8.64310 39278 ft 450 kts 35°
2026-04-23 17:28 47.71552 8.73518 39277 ft 448 kts 36°
2026-04-23 17:28 47.81484 8.83289 39280 ft 448 kts 36°
2026-04-23 17:29 47.91739 8.93427 39282 ft 448 kts 36°
2026-04-23 17:30 48.05328 9.06938 39262 ft 448 kts 36°
2026-04-23 17:30 48.17390 9.17743 39265 ft 451 kts 21°
2026-04-23 17:30 48.23357 9.19492 39270 ft 456 kts
2026-04-23 17:31 48.34685 9.21342 39264 ft 457 kts
2026-04-23 17:31 48.46308 9.23287 39268 ft 457 kts
2026-04-23 17:32 48.58546 9.25361 39270 ft 457 kts
2026-04-23 17:32 48.70833 9.27305 39277 ft 456 kts
2026-04-23 17:33 48.83187 9.29186 39264 ft 457 kts
2026-04-23 17:33 48.95561 9.31087 39257 ft 456 kts
2026-04-23 17:34 49.07105 9.32871 39267 ft 458 kts
2026-04-23 17:35 49.23154 9.35364 39273 ft 456 kts
2026-04-23 17:35 49.41110 9.38175 39266 ft 457 kts
2026-04-23 17:36 49.53433 9.40115 39271 ft 455 kts
2026-04-23 17:36 49.65481 9.42023 39257 ft 453 kts
2026-04-23 17:37 49.77632 9.43962 39259 ft 455 kts
2026-04-23 17:38 49.94564 9.46680 39256 ft 454 kts
2026-04-23 17:38 50.06369 9.48586 39259 ft 453 kts
2026-04-23 17:39 50.16967 9.50352 39265 ft 455 kts
2026-04-23 17:39 50.27814 9.52174 39264 ft 454 kts
2026-04-23 17:40 50.38690 9.54008 39269 ft 454 kts
2026-04-23 17:40 50.50060 9.55934 39267 ft 454 kts
2026-04-23 17:41 50.62095 9.57982 39262 ft 453 kts
2026-04-23 17:41 50.78977 9.60984 39276 ft 453 kts
2026-04-23 17:42 50.96769 9.64457 39266 ft 451 kts
2026-04-23 17:43 51.07416 9.66541 39275 ft 452 kts 10°
2026-04-23 17:43 51.17205 9.68463 39278 ft 453 kts
2026-04-23 17:44 51.28268 9.70395 39287 ft 452 kts
2026-04-23 17:44 51.39234 9.72155 39286 ft 453 kts
2026-04-23 17:45 51.48653 9.73700 39266 ft 452 kts
2026-04-23 17:46 51.57948 9.76024 39270 ft 453 kts 11°
2026-04-23 17:46 51.64141 9.77628 39279 ft 453 kts 11°
2026-04-23 17:47 51.70368 9.79258 39270 ft 453 kts 12°
2026-04-23 17:48 51.79688 9.82008 39276 ft 457 kts 12°
2026-04-23 17:48 51.85959 9.83873 39095 ft 459 kts 12°
2026-04-23 17:48 51.89045 9.84792 38809 ft 449 kts 12°
2026-04-23 17:49 51.92088 9.85700 38505 ft 447 kts 12°
2026-04-23 17:49 51.95175 9.86623 38195 ft 457 kts 12°
2026-04-23 17:49 51.98289 9.87556 37881 ft 455 kts 12°
2026-04-23 17:49 52.01406 9.88489 37303 ft 451 kts 12°
2026-04-23 17:50 52.04465 9.89407 36352 ft 454 kts 12°
2026-04-23 17:50 52.10650 9.91269 34010 ft 467 kts 12°
2026-04-23 17:50 52.13826 9.92227 33063 ft 470 kts 12°
2026-04-23 17:51 52.17040 9.93197 32264 ft 470 kts 12°
2026-04-23 17:51 52.20250 9.94167 31502 ft 468 kts 12°
2026-04-23 17:51 52.26630 9.96100 29999 ft 463 kts 12°
2026-04-23 17:52 52.29763 9.97050 29450 ft 456 kts 12°
2026-04-23 17:52 52.35884 9.98912 28239 ft 446 kts 12°
2026-04-23 17:52 52.38919 9.99837 27593 ft 442 kts 12°
2026-04-23 17:53 52.44913 10.01652 26354 ft 435 kts
2026-04-23 17:53 52.47887 10.02151 25732 ft 432 kts
2026-04-23 17:53 52.50856 10.02526 25130 ft 429 kts
2026-04-23 17:54 52.53821 10.02896 24567 ft 425 kts
2026-04-23 17:54 52.56720 10.03258 24016 ft 421 kts
2026-04-23 17:54 52.62497 10.03981 22903 ft 413 kts
2026-04-23 17:55 52.68144 10.04689 21786 ft 406 kts
2026-04-23 17:55 52.70956 10.05043 21228 ft 403 kts
2026-04-23 17:55 52.73724 10.05392 20682 ft 399 kts
2026-04-23 17:56 52.76454 10.05736 20136 ft 396 kts
2026-04-23 17:56 52.81876 10.06421 18955 ft 392 kts
2026-04-23 17:56 52.84599 10.06766 18391 ft 389 kts
2026-04-23 17:57 52.87260 10.07103 17869 ft 385 kts
2026-04-23 17:57 52.89916 10.07440 17371 ft 381 kts
2026-04-23 17:57 52.95093 10.08539 16349 ft 373 kts 12°
2026-04-23 17:58 52.97605 10.09464 15817 ft 370 kts 12°
2026-04-23 17:58 53.00094 10.10389 15319 ft 366 kts 12°
2026-04-23 17:58 53.02574 10.11311 14806 ft 362 kts 12°
2026-04-23 17:58 53.05002 10.12215 14298 ft 360 kts 12°
2026-04-23 17:59 53.07413 10.13115 13797 ft 356 kts 12°
2026-04-23 17:59 53.09831 10.14017 13292 ft 353 kts 12°
2026-04-23 17:59 53.12204 10.14904 12798 ft 349 kts 11°
2026-04-23 17:59 53.14573 10.15791 12308 ft 346 kts 11°
2026-04-23 18:00 53.16882 10.16656 11820 ft 343 kts 11°
2026-04-23 18:00 53.19198 10.17525 11379 ft 338 kts 11°
2026-04-23 18:00 53.21467 10.18377 11246 ft 330 kts 11°
2026-04-23 18:00 53.23676 10.19208 11076 ft 318 kts 11°
2026-04-23 18:01 53.25765 10.19996 11023 ft 304 kts 11°
2026-04-23 18:01 53.27793 10.20761 11007 ft 289 kts 11°
2026-04-23 18:01 53.29712 10.21486 11006 ft 275 kts 11°
2026-04-23 18:01 53.31536 10.22175 10896 ft 266 kts 11°
2026-04-23 18:02 53.32727 10.22625 10709 ft 265 kts 11°
2026-04-23 18:02 53.35128 10.23532 10275 ft 264 kts 11°
2026-04-23 18:02 53.36901 10.24203 9962 ft 263 kts 10°
2026-04-23 18:02 53.38681 10.24876 9647 ft 262 kts 10°
2026-04-23 18:03 53.40441 10.25542 9339 ft 261 kts 10°
2026-04-23 18:03 53.42209 10.26213 9035 ft 260 kts 10°
2026-04-23 18:03 53.43963 10.26878 8733 ft 258 kts 10°
2026-04-23 18:03 53.45722 10.27546 8441 ft 256 kts 10°
2026-04-23 18:04 53.47434 10.28197 8127 ft 256 kts 10°
2026-04-23 18:04 53.49171 10.28857 7818 ft 254 kts 10°
2026-04-23 18:04 53.50885 10.29510 7525 ft 253 kts 10°
2026-04-23 18:04 53.52608 10.30166 7211 ft 252 kts
2026-04-23 18:05 53.54313 10.30816 6907 ft 250 kts
2026-04-23 18:05 53.56016 10.31466 6613 ft 248 kts
2026-04-23 18:05 53.57685 10.32103 6295 ft 248 kts
2026-04-23 18:05 53.59363 10.32744 5978 ft 246 kts
2026-04-23 18:06 53.61031 10.33382 5657 ft 246 kts
2026-04-23 18:06 53.62682 10.34014 5390 ft 242 kts
2026-04-23 18:06 53.64293 10.34634 5386 ft 229 kts
2026-04-23 18:06 53.65807 10.35217 5366 ft 217 kts
2026-04-23 18:07 53.67252 10.35772 5221 ft 211 kts
2026-04-23 18:07 53.68663 10.36311 4991 ft 209 kts
2026-04-23 18:07 53.70071 10.36866 4958 ft 210 kts 13°
2026-04-23 18:07 53.71400 10.37962 4960 ft 216 kts 25°
2026-04-23 18:08 53.72313 10.38652 4943 ft 212 kts
2026-04-23 18:08 53.74152 10.38080 4919 ft 206 kts 326°
2026-04-23 18:08 53.75040 10.36215 4636 ft 214 kts 295°
2026-04-23 18:08 53.75157 10.33670 4322 ft 226 kts 268°
2026-04-23 18:09 53.74842 10.31058 4060 ft 228 kts 264°
2026-04-23 18:09 53.74489 10.28441 3802 ft 228 kts 264°
2026-04-23 18:09 53.74140 10.25854 3539 ft 228 kts 264°
2026-04-23 18:09 53.73792 10.23293 3261 ft 223 kts 264°
2026-04-23 18:10 53.73426 10.20792 3006 ft 215 kts 259°
2026-04-23 18:10 53.72760 10.18600 2911 ft 209 kts 244°
2026-04-23 18:10 53.71883 10.16718 2632 ft 194 kts 238°
2026-04-23 18:10 53.71041 10.15050 2398 ft 185 kts 239°
2026-04-23 18:11 53.70223 10.13388 2152 ft 182 kts 240°
2026-04-23 18:11 53.69421 10.11755 1912 ft 180 kts 239°
2026-04-23 18:11 53.68633 10.10158 1663 ft 177 kts 239°
2026-04-23 18:11 53.67847 10.08561 1416 ft 174 kts 238°
2026-04-23 18:12 53.67107 10.07067 1192 ft 159 kts 238°
2026-04-23 18:12 53.66449 10.05730 980 ft 138 kts 239°
2026-04-23 18:12 53.65850 10.04512 803 ft 133 kts 238°
2026-04-23 18:12 53.65263 10.03325 615 ft 130 kts 237°
2026-04-23 18:13 53.64691 10.02167 433 ft 128 kts 236°
2026-04-23 18:13 53.64126 10.01025 257 ft 127 kts 235°
2026-04-23 18:13 53.63570 9.99907 94 ft 125 kts 233°
2026-04-23 18:13 53.63062 9.98871 51 ft 95 kts 229°
2026-04-23 18:14 53.62730 9.98212 49 ft 59 kts 230°
2026-04-23 18:14 53.62552 9.97839 47 ft 22 kts 219°
2026-04-23 18:14 53.62436 9.97873 47 ft 15 kts 103°
2026-04-23 18:14 53.62436 9.97917 47 ft 0 kts 86°
2026-04-23 18:15 53.62437 9.97932 47 ft 3 kts 86°
2026-04-23 18:15 53.62441 9.98002 48 ft 10 kts 80°
2026-04-23 18:16 53.62478 9.98118 48 ft 12 kts 53°
2026-04-23 18:16 53.62535 9.98240 49 ft 14 kts 49°
2026-04-23 18:16 53.62603 9.98371 50 ft 15 kts 49°
2026-04-23 18:17 53.62755 9.98674 50 ft 18 kts 50°
2026-04-23 18:17 53.62823 9.98813 51 ft 12 kts 50°
2026-04-23 18:17 53.62851 9.98868 51 ft 1 kts 50°
2026-04-23 18:17 53.62860 9.98887 51 ft 0 kts 50°
2026-04-23 18:18 53.62861 9.98889 51 ft 1 kts 50°
2026-04-23 18:19 53.62882 9.98931 51 ft 11 kts 51°
2026-04-23 18:19 53.62951 9.99074 51 ft 17 kts 51°
2026-04-23 18:19 53.63013 9.99205 51 ft 12 kts 50°
2026-04-23 18:19 53.63061 9.99309 51 ft 8 kts 52°
2026-04-23 18:20 53.63065 9.99316 51 ft 0 kts 52°
2026-04-23 18:22 53.63120 9.99438 52 ft 23 kts 56°
2026-04-23 18:22 53.63189 9.99599 53 ft 0 kts 51°
2026-04-23 18:22 53.63194 9.99611 53 ft 5 kts 51°
2026-04-23 18:22 53.63233 9.99681 53 ft 9 kts 44°
2026-04-23 18:23 53.63266 9.99735 53 ft 3 kts 45°
2026-04-23 18:23 53.63297 9.99794 54 ft 0 kts 50°
2026-04-23 18:24 53.63322 9.99845 54 ft 6 kts 49°
2026-04-23 18:24 53.63344 9.99888 54 ft 0 kts 49°
2026-04-23 18:24 53.63351 9.99901 54 ft 2 kts 49°
2026-04-23 18:25 53.63374 9.99946 55 ft 2 kts 49°
2026-04-23 18:25 53.63385 9.99968 55 ft 0 kts 49°
2026-04-23 18:28 53.63388 9.99974 55 ft 1 kts 49°
2026-04-23 18:28 53.63405 10.00007 55 ft 5 kts 51°
2026-04-23 18:29 53.63416 10.00034 56 ft 0 kts 57°
2026-04-23 18:29 53.63425 10.00061 56 ft 4 kts 62°
2026-04-23 18:29 53.63438 10.00122 56 ft 6 kts 90°
2026-04-23 18:29 53.63430 10.00213 56 ft 7 kts 102°
2026-04-23 18:30 53.63425 10.00272 56 ft 4 kts 98°
2026-04-23 18:30 53.63422 10.00301 56 ft 1 kts 99°
2026-04-23 18:30 53.63420 10.00319 56 ft 0 kts 101°
2026-04-23 18:30 53.63418 10.00331 56 ft 1 kts 101°
2026-04-23 18:31 53.63418 10.00334 56 ft 0 kts 101°